Year,Month,Day,Hour,Minute,Value (Times are PST for temperature in C)
2013,07,13,00,00,13.50
2013,07,13,00,01,13.50
2013,07,13,00,02,13.50
2013,07,13,00,03,13.40
2013,07,13,00,04,13.40
2013,07,13,00,05,13.40
2013,07,13,00,06,13.30
2013,07,13,00,07,13.30
2013,07,13,00,08,13.30
2013,07,13,00,09,13.30
2013,07,13,00,10,13.30
2013,07,13,00,11,13.40
2013,07,13,00,12,13.30
2013,07,13,00,13,13.30
2013,07,13,00,14,13.30
2013,07,13,00,15,13.30
2013,07,13,00,16,13.30
2013,07,13,00,17,13.30
2013,07,13,00,18,13.30
2013,07,13,00,19,13.30
2013,07,13,00,20,13.30
2013,07,13,00,21,13.30
2013,07,13,00,22,13.30
2013,07,13,00,23,13.30
2013,07,13,00,24,13.30
2013,07,13,00,25,13.30
2013,07,13,00,26,13.30
2013,07,13,00,27,13.30
2013,07,13,00,28,13.20
2013,07,13,00,29,13.20
2013,07,13,00,30,13.10
2013,07,13,00,31,13.10
2013,07,13,00,32,13.10
2013,07,13,00,33,13.00
2013,07,13,00,34,13.00
2013,07,13,00,35,12.90
2013,07,13,00,36,12.90
2013,07,13,00,37,12.90
2013,07,13,00,38,12.90
2013,07,13,00,39,12.80
2013,07,13,00,40,12.80
2013,07,13,00,41,12.80
2013,07,13,00,42,12.80
2013,07,13,00,43,12.80
2013,07,13,00,44,12.80
2013,07,13,00,45,12.80
2013,07,13,00,46,12.80
2013,07,13,00,47,12.80
2013,07,13,00,48,12.70
2013,07,13,00,49,12.70
2013,07,13,00,50,12.70
2013,07,13,00,51,12.70
2013,07,13,00,52,12.70
2013,07,13,00,53,12.80
2013,07,13,00,54,12.80
2013,07,13,00,55,12.80
2013,07,13,00,56,12.80
2013,07,13,00,57,12.80
2013,07,13,00,58,12.80
2013,07,13,00,59,12.70
2013,07,13,01,00,12.70
2013,07,13,01,01,12.70
2013,07,13,01,02,12.70
2013,07,13,01,03,12.70
2013,07,13,01,04,12.70
2013,07,13,01,05,12.70
2013,07,13,01,06,12.70
2013,07,13,01,07,12.70
2013,07,13,01,08,12.70
2013,07,13,01,09,12.70
2013,07,13,01,10,12.70
2013,07,13,01,11,12.70
2013,07,13,01,12,12.70
2013,07,13,01,13,12.70
2013,07,13,01,14,12.70
2013,07,13,01,15,12.70
2013,07,13,01,16,12.70
2013,07,13,01,17,12.70
2013,07,13,01,18,12.70
2013,07,13,01,19,12.70
2013,07,13,01,20,12.70
2013,07,13,01,21,12.70
2013,07,13,01,22,12.70
2013,07,13,01,23,12.70
2013,07,13,01,24,12.70
2013,07,13,01,25,12.70
2013,07,13,01,26,12.60
2013,07,13,01,27,12.60
2013,07,13,01,28,12.60
2013,07,13,01,29,12.60
2013,07,13,01,30,12.60
2013,07,13,01,31,12.60
2013,07,13,01,32,12.50
2013,07,13,01,33,12.50
2013,07,13,01,34,12.50
2013,07,13,01,35,12.50
2013,07,13,01,36,12.50
2013,07,13,01,37,12.50
2013,07,13,01,38,12.50
2013,07,13,01,39,12.40
2013,07,13,01,40,12.40
2013,07,13,01,41,12.40
2013,07,13,01,42,12.40
2013,07,13,01,43,12.40
2013,07,13,01,44,12.30
2013,07,13,01,45,12.30
2013,07,13,01,46,12.30
2013,07,13,01,47,12.30
2013,07,13,01,48,12.20
2013,07,13,01,49,12.20
2013,07,13,01,50,12.20
2013,07,13,01,51,12.10
2013,07,13,01,52,12.10
2013,07,13,01,53,12.10
2013,07,13,01,54,12.10
2013,07,13,01,55,12.00
2013,07,13,01,56,12.00
2013,07,13,01,57,12.00
2013,07,13,01,58,11.90
2013,07,13,01,59,11.90
2013,07,13,02,00,11.90
2013,07,13,02,01,11.80
2013,07,13,02,02,11.80
2013,07,13,02,03,11.70
2013,07,13,02,04,11.70
2013,07,13,02,05,11.70
2013,07,13,02,06,11.70
2013,07,13,02,07,11.70
2013,07,13,02,08,11.70
2013,07,13,02,09,11.70
2013,07,13,02,10,11.70
2013,07,13,02,11,11.70
2013,07,13,02,12,11.80
2013,07,13,02,13,11.70
2013,07,13,02,14,11.70
2013,07,13,02,15,11.70
2013,07,13,02,16,11.70
2013,07,13,02,17,11.70
2013,07,13,02,18,11.70
2013,07,13,02,19,11.70
2013,07,13,02,20,11.70
2013,07,13,02,21,11.70
2013,07,13,02,22,11.70
2013,07,13,02,23,11.70
2013,07,13,02,24,11.70
2013,07,13,02,25,11.70
2013,07,13,02,26,11.70
2013,07,13,02,27,11.70
2013,07,13,02,28,11.60
2013,07,13,02,29,11.60
2013,07,13,02,30,11.60
2013,07,13,02,31,11.60
2013,07,13,02,32,11.60
2013,07,13,02,33,11.60
2013,07,13,02,34,11.60
2013,07,13,02,35,11.60
2013,07,13,02,36,11.60
2013,07,13,02,37,11.60
2013,07,13,02,38,11.60
2013,07,13,02,39,11.50
2013,07,13,02,40,11.50
2013,07,13,02,41,11.50
2013,07,13,02,42,11.50
2013,07,13,02,43,11.50
2013,07,13,02,44,11.50
2013,07,13,02,45,11.50
2013,07,13,02,46,11.40
2013,07,13,02,47,11.40
2013,07,13,02,48,11.40
2013,07,13,02,49,11.40
2013,07,13,02,50,11.40
2013,07,13,02,51,11.40
2013,07,13,02,52,11.30
2013,07,13,02,53,11.30
2013,07,13,02,54,11.30
2013,07,13,02,55,11.30
2013,07,13,02,56,11.30
2013,07,13,02,57,11.30
2013,07,13,02,58,11.20
2013,07,13,02,59,11.20
2013,07,13,03,00,11.20
2013,07,13,03,01,11.20
2013,07,13,03,02,11.20
2013,07,13,03,03,11.20
2013,07,13,03,04,11.10
2013,07,13,03,05,11.10
2013,07,13,03,06,11.10
2013,07,13,03,07,11.10
2013,07,13,03,08,11.10
2013,07,13,03,09,11.10
2013,07,13,03,10,11.10
2013,07,13,03,11,11.10
2013,07,13,03,12,11.10
2013,07,13,03,13,11.10
2013,07,13,03,14,11.10
2013,07,13,03,15,11.10
2013,07,13,03,16,11.10
2013,07,13,03,17,11.10
2013,07,13,03,18,11.10
2013,07,13,03,19,11.10
2013,07,13,03,20,11.10
2013,07,13,03,21,11.00
2013,07,13,03,22,11.00
2013,07,13,03,23,11.00
2013,07,13,03,24,11.00
2013,07,13,03,25,11.00
2013,07,13,03,26,10.90
2013,07,13,03,27,10.90
2013,07,13,03,28,10.90
2013,07,13,03,29,10.90
2013,07,13,03,30,10.90
2013,07,13,03,31,10.90
2013,07,13,03,32,10.80
2013,07,13,03,33,10.80
2013,07,13,03,34,10.80
2013,07,13,03,35,10.80
2013,07,13,03,36,10.70
2013,07,13,03,37,10.70
2013,07,13,03,38,10.70
2013,07,13,03,39,10.60
2013,07,13,03,40,10.60
2013,07,13,03,41,10.60
2013,07,13,03,42,10.60
2013,07,13,03,43,10.60
2013,07,13,03,44,10.50
2013,07,13,03,45,10.50
2013,07,13,03,46,10.50
2013,07,13,03,47,10.50
2013,07,13,03,48,10.40
2013,07,13,03,49,10.40
2013,07,13,03,50,10.40
2013,07,13,03,51,10.40
2013,07,13,03,52,10.40
2013,07,13,03,53,10.40
2013,07,13,03,54,10.40
2013,07,13,03,55,10.40
2013,07,13,03,56,10.30
2013,07,13,03,57,10.30
2013,07,13,03,58,10.30
2013,07,13,03,59,10.30
2013,07,13,04,00,10.30
2013,07,13,04,01,10.30
2013,07,13,04,02,10.20
2013,07,13,04,03,10.20
2013,07,13,04,04,10.20
2013,07,13,04,05,10.20
2013,07,13,04,06,10.20
2013,07,13,04,07,10.20
2013,07,13,04,08,10.20
2013,07,13,04,09,10.20
2013,07,13,04,10,10.20
2013,07,13,04,11,10.20
2013,07,13,04,12,10.20
2013,07,13,04,13,10.20
2013,07,13,04,14,10.10
2013,07,13,04,15,10.10
2013,07,13,04,16,10.10
2013,07,13,04,17,10.10
2013,07,13,04,18,10.10
2013,07,13,04,19,10.10
2013,07,13,04,20,10.10
2013,07,13,04,21,10.10
2013,07,13,04,22,10.10
2013,07,13,04,23,10.10
2013,07,13,04,24,10.10
2013,07,13,04,25,10.10
2013,07,13,04,26,10.20
2013,07,13,04,27,10.20
2013,07,13,04,28,10.10
2013,07,13,04,29,10.10
2013,07,13,04,30,10.10
2013,07,13,04,31,10.10
2013,07,13,04,32,10.10
2013,07,13,04,33,10.10
2013,07,13,04,34,10.10
2013,07,13,04,35,10.00
2013,07,13,04,36,10.10
2013,07,13,04,37,10.10
2013,07,13,04,38,10.10
2013,07,13,04,39,10.10
2013,07,13,04,40,10.10
2013,07,13,04,41,10.10
2013,07,13,04,42,10.10
2013,07,13,04,43,10.10
2013,07,13,04,44,10.10
2013,07,13,04,45,10.10
2013,07,13,04,46,10.10
2013,07,13,04,47,10.10
2013,07,13,04,48,10.10
2013,07,13,04,49,10.10
2013,07,13,04,50,10.10
2013,07,13,04,51,10.10
2013,07,13,04,52,10.00
2013,07,13,04,53,10.00
2013,07,13,04,54,10.00
2013,07,13,04,55,10.00
2013,07,13,04,56,10.00
2013,07,13,04,57,10.00
2013,07,13,04,58,10.00
2013,07,13,04,59,10.00
2013,07,13,05,00,10.00
2013,07,13,05,01,10.00
2013,07,13,05,02,10.00
2013,07,13,05,03,10.00
2013,07,13,05,04,9.90
2013,07,13,05,05,9.90
2013,07,13,05,06,9.90
2013,07,13,05,07,9.90
2013,07,13,05,08,9.80
2013,07,13,05,09,9.80
2013,07,13,05,10,9.80
2013,07,13,05,11,9.80
2013,07,13,05,12,9.80
2013,07,13,05,13,9.80
2013,07,13,05,14,9.80
2013,07,13,05,15,9.80
2013,07,13,05,16,9.80
2013,07,13,05,17,9.80
2013,07,13,05,18,9.80
2013,07,13,05,19,9.80
2013,07,13,05,20,9.80
2013,07,13,05,21,9.80
2013,07,13,05,22,9.80
2013,07,13,05,23,9.80
2013,07,13,05,24,9.80
2013,07,13,05,25,9.80
2013,07,13,05,26,9.80
2013,07,13,05,27,9.80
2013,07,13,05,28,9.80
2013,07,13,05,29,9.80
2013,07,13,05,30,9.80
2013,07,13,05,31,9.70
2013,07,13,05,32,9.70
2013,07,13,05,33,9.70
2013,07,13,05,34,9.70
2013,07,13,05,35,9.70
2013,07,13,05,36,9.70
2013,07,13,05,37,9.70
2013,07,13,05,38,9.70
2013,07,13,05,39,9.70
2013,07,13,05,40,9.70
2013,07,13,05,41,9.70
2013,07,13,05,42,9.70
2013,07,13,05,43,9.70
2013,07,13,05,44,9.70
2013,07,13,05,45,9.70
2013,07,13,05,46,9.60
2013,07,13,05,47,9.60
2013,07,13,05,48,9.60
2013,07,13,05,49,9.70
2013,07,13,05,50,9.70
2013,07,13,05,51,9.70
2013,07,13,05,52,9.70
2013,07,13,05,53,9.70
2013,07,13,05,54,9.70
2013,07,13,05,55,9.70
2013,07,13,05,56,9.70
2013,07,13,05,57,9.70
2013,07,13,05,58,9.70
2013,07,13,05,59,9.70
2013,07,13,06,00,9.70
2013,07,13,06,01,9.70
2013,07,13,06,02,9.70
2013,07,13,06,03,9.70
2013,07,13,06,04,9.70
2013,07,13,06,05,9.70
2013,07,13,06,06,9.70
2013,07,13,06,07,9.70
2013,07,13,06,08,9.70
2013,07,13,06,09,9.70
2013,07,13,06,10,9.70
2013,07,13,06,11,9.70
2013,07,13,06,12,9.70
2013,07,13,06,13,9.70
2013,07,13,06,14,9.70
2013,07,13,06,15,9.70
2013,07,13,06,16,9.60
2013,07,13,06,17,9.60
2013,07,13,06,18,9.60
2013,07,13,06,19,9.60
2013,07,13,06,20,9.70
2013,07,13,06,21,9.70
2013,07,13,06,22,9.70
2013,07,13,06,23,9.70
2013,07,13,06,24,9.70
2013,07,13,06,25,9.70
2013,07,13,06,26,9.70
2013,07,13,06,27,9.70
2013,07,13,06,28,9.70
2013,07,13,06,29,9.70
2013,07,13,06,30,9.70
2013,07,13,06,31,9.70
2013,07,13,06,32,9.70
2013,07,13,06,33,9.70
2013,07,13,06,34,9.80
2013,07,13,06,35,9.80
2013,07,13,06,36,9.80
2013,07,13,06,37,9.80
2013,07,13,06,38,9.80
2013,07,13,06,39,9.90
2013,07,13,06,40,9.90
2013,07,13,06,41,9.90
2013,07,13,06,42,10.00
2013,07,13,06,43,10.00
2013,07,13,06,44,10.00
2013,07,13,06,45,10.10
2013,07,13,06,46,10.10
2013,07,13,06,47,10.20
2013,07,13,06,48,10.20
2013,07,13,06,49,10.30
2013,07,13,06,50,10.30
2013,07,13,06,51,10.30
2013,07,13,06,52,10.30
2013,07,13,06,53,10.30
2013,07,13,06,54,10.40
2013,07,13,06,55,10.40
2013,07,13,06,56,10.40
2013,07,13,06,57,10.50
2013,07,13,06,58,10.50
2013,07,13,06,59,10.60
2013,07,13,07,00,10.60
2013,07,13,07,01,10.60
2013,07,13,07,02,10.70
2013,07,13,07,03,10.70
2013,07,13,07,04,10.80
2013,07,13,07,05,10.90
2013,07,13,07,06,11.00
2013,07,13,07,07,11.10
2013,07,13,07,08,11.20
2013,07,13,07,09,11.30
2013,07,13,07,10,11.50
2013,07,13,07,11,11.60
2013,07,13,07,12,11.70
2013,07,13,07,13,11.70
2013,07,13,07,14,11.80
2013,07,13,07,15,12.00
2013,07,13,07,16,12.20
2013,07,13,07,17,12.40
2013,07,13,07,18,12.70
2013,07,13,07,19,12.80
2013,07,13,07,20,12.90
2013,07,13,07,21,13.00
2013,07,13,07,22,13.10
2013,07,13,07,23,13.20
2013,07,13,07,24,13.30
2013,07,13,07,25,13.40
2013,07,13,07,26,13.50
2013,07,13,07,27,13.60
2013,07,13,07,28,13.60
2013,07,13,07,29,13.70
2013,07,13,07,30,13.80
2013,07,13,07,31,13.80
2013,07,13,07,32,13.90
2013,07,13,07,33,13.90
2013,07,13,07,34,14.00
2013,07,13,07,35,14.10
2013,07,13,07,36,14.10
2013,07,13,07,37,14.20
2013,07,13,07,38,14.30
2013,07,13,07,39,14.30
2013,07,13,07,40,14.40
2013,07,13,07,41,14.50
2013,07,13,07,42,14.50
2013,07,13,07,43,14.60
2013,07,13,07,44,14.60
2013,07,13,07,45,14.70
2013,07,13,07,46,14.70
2013,07,13,07,47,14.70
2013,07,13,07,48,14.80
2013,07,13,07,49,14.80
2013,07,13,07,50,14.90
2013,07,13,07,51,14.90
2013,07,13,07,52,15.00
2013,07,13,07,53,15.00
2013,07,13,07,54,15.00
2013,07,13,07,55,15.00
2013,07,13,07,56,15.00
2013,07,13,07,57,15.00
2013,07,13,07,58,15.00
2013,07,13,07,59,14.90
2013,07,13,08,00,14.90
2013,07,13,08,01,14.80
2013,07,13,08,02,14.80
2013,07,13,08,03,14.80
2013,07,13,08,04,14.90
2013,07,13,08,05,14.90
2013,07,13,08,06,15.00
2013,07,13,08,07,15.10
2013,07,13,08,08,15.10
2013,07,13,08,09,15.20
2013,07,13,08,10,15.30
2013,07,13,08,11,15.30
2013,07,13,08,12,15.40
2013,07,13,08,13,15.50
2013,07,13,08,14,15.60
2013,07,13,08,15,15.70
2013,07,13,08,16,15.80
2013,07,13,08,17,15.80
2013,07,13,08,18,15.80
2013,07,13,08,19,15.80
2013,07,13,08,20,15.80
2013,07,13,08,21,15.70
2013,07,13,08,22,15.70
2013,07,13,08,23,15.60
2013,07,13,08,24,15.50
2013,07,13,08,25,15.50
2013,07,13,08,26,15.50
2013,07,13,08,27,15.60
2013,07,13,08,28,15.60
2013,07,13,08,29,15.70
2013,07,13,08,30,15.70
2013,07,13,08,31,15.80
2013,07,13,08,32,15.80
2013,07,13,08,33,15.90
2013,07,13,08,34,16.00
2013,07,13,08,35,16.10
2013,07,13,08,36,16.20
2013,07,13,08,37,16.20
2013,07,13,08,38,16.20
2013,07,13,08,39,16.30
2013,07,13,08,40,16.30
2013,07,13,08,41,16.40
2013,07,13,08,42,16.40
2013,07,13,08,43,16.40
2013,07,13,08,44,16.40
2013,07,13,08,45,16.40
2013,07,13,08,46,16.50
2013,07,13,08,47,16.50
2013,07,13,08,48,16.60
2013,07,13,08,49,16.50
2013,07,13,08,50,16.50
2013,07,13,08,51,16.50
2013,07,13,08,52,16.50
2013,07,13,08,53,16.60
2013,07,13,08,54,16.60
2013,07,13,08,55,16.60
2013,07,13,08,56,16.70
2013,07,13,08,57,16.70
2013,07,13,08,58,16.70
2013,07,13,08,59,16.70
2013,07,13,09,00,16.80
2013,07,13,09,01,16.90
2013,07,13,09,02,17.00
2013,07,13,09,03,17.00
2013,07,13,09,04,17.10
2013,07,13,09,05,17.20
2013,07,13,09,06,17.20
2013,07,13,09,07,17.30
2013,07,13,09,08,17.30
2013,07,13,09,09,17.30
2013,07,13,09,10,17.30
2013,07,13,09,11,17.30
2013,07,13,09,12,17.30
2013,07,13,09,13,17.20
2013,07,13,09,14,17.10
2013,07,13,09,15,17.10
2013,07,13,09,16,17.20
2013,07,13,09,17,17.20
2013,07,13,09,18,17.30
2013,07,13,09,19,17.30
2013,07,13,09,20,17.30
2013,07,13,09,21,17.30
2013,07,13,09,22,17.30
2013,07,13,09,23,17.30
2013,07,13,09,24,17.30
2013,07,13,09,25,17.30
2013,07,13,09,26,17.30
2013,07,13,09,27,17.40
2013,07,13,09,28,17.40
2013,07,13,09,29,17.40
2013,07,13,09,30,17.50
2013,07,13,09,31,17.50
2013,07,13,09,32,17.60
2013,07,13,09,33,17.50
2013,07,13,09,34,17.30
2013,07,13,09,35,17.30
2013,07,13,09,36,17.20
2013,07,13,09,37,17.20
2013,07,13,09,38,17.20
2013,07,13,09,39,17.20
2013,07,13,09,40,17.20
2013,07,13,09,41,17.20
2013,07,13,09,42,17.30
2013,07,13,09,43,17.30
2013,07,13,09,44,17.40
2013,07,13,09,45,17.40
2013,07,13,09,46,17.40
2013,07,13,09,47,17.50
2013,07,13,09,48,17.50
2013,07,13,09,49,17.50
2013,07,13,09,50,17.50
2013,07,13,09,51,17.50
2013,07,13,09,52,17.50
2013,07,13,09,53,17.40
2013,07,13,09,54,17.40
2013,07,13,09,55,17.40
2013,07,13,09,56,17.40
2013,07,13,09,57,17.40
2013,07,13,09,58,17.30
2013,07,13,09,59,17.20
2013,07,13,10,00,17.10
2013,07,13,10,01,17.00
2013,07,13,10,02,16.90
2013,07,13,10,03,16.80
2013,07,13,10,04,16.80
2013,07,13,10,05,16.80
2013,07,13,10,06,16.70
2013,07,13,10,07,16.70
2013,07,13,10,08,16.70
2013,07,13,10,09,16.70
2013,07,13,10,10,16.80
2013,07,13,10,11,16.80
2013,07,13,10,12,16.80
2013,07,13,10,13,16.80
2013,07,13,10,14,16.70
2013,07,13,10,15,16.70
2013,07,13,10,16,16.60
2013,07,13,10,17,16.60
2013,07,13,10,18,16.50
2013,07,13,10,19,16.40
2013,07,13,10,20,16.40
2013,07,13,10,21,16.50
2013,07,13,10,22,16.60
2013,07,13,10,23,16.60
2013,07,13,10,24,16.60
2013,07,13,10,25,16.70
2013,07,13,10,26,16.70
2013,07,13,10,27,16.70
2013,07,13,10,28,16.70
2013,07,13,10,29,16.70
2013,07,13,10,30,16.80
2013,07,13,10,31,16.90
2013,07,13,10,32,17.00
2013,07,13,10,33,17.10
2013,07,13,10,34,17.10
2013,07,13,10,35,17.10
2013,07,13,10,36,17.10
2013,07,13,10,37,17.10
2013,07,13,10,38,17.10
2013,07,13,10,39,17.20
2013,07,13,10,40,17.30
2013,07,13,10,41,17.30
2013,07,13,10,42,17.40
2013,07,13,10,43,17.50
2013,07,13,10,44,17.50
2013,07,13,10,45,17.50
2013,07,13,10,46,17.50
2013,07,13,10,47,17.60
2013,07,13,10,48,17.60
2013,07,13,10,49,17.40
2013,07,13,10,50,17.30
2013,07,13,10,51,17.20
2013,07,13,10,52,17.20
2013,07,13,10,53,17.10
2013,07,13,10,54,17.20
2013,07,13,10,55,17.20
2013,07,13,10,56,17.20
2013,07,13,10,57,17.20
2013,07,13,10,58,17.20
2013,07,13,10,59,17.20
2013,07,13,11,00,17.20
2013,07,13,11,01,17.30
2013,07,13,11,02,17.50
2013,07,13,11,03,17.60
2013,07,13,11,04,17.80
2013,07,13,11,05,17.90
2013,07,13,11,06,17.90
2013,07,13,11,07,17.90
2013,07,13,11,08,17.80
2013,07,13,11,09,17.80
2013,07,13,11,10,17.90
2013,07,13,11,11,18.00
2013,07,13,11,12,18.10
2013,07,13,11,13,18.20
2013,07,13,11,14,18.30
2013,07,13,11,15,18.30
2013,07,13,11,16,18.40
2013,07,13,11,17,18.40
2013,07,13,11,18,18.50
2013,07,13,11,19,18.50
2013,07,13,11,20,18.60
2013,07,13,11,21,18.70
2013,07,13,11,22,18.70
2013,07,13,11,23,18.80
2013,07,13,11,24,18.90
2013,07,13,11,25,19.00
2013,07,13,11,26,19.00
2013,07,13,11,27,19.10
2013,07,13,11,28,19.00
2013,07,13,11,29,18.90
2013,07,13,11,30,18.80
2013,07,13,11,31,18.70
2013,07,13,11,32,18.70
2013,07,13,11,33,18.60
2013,07,13,11,34,18.40
2013,07,13,11,35,18.20
2013,07,13,11,36,18.20
2013,07,13,11,37,18.20
2013,07,13,11,38,18.30
2013,07,13,11,39,18.40
2013,07,13,11,40,18.40
2013,07,13,11,41,18.40
2013,07,13,11,42,18.30
2013,07,13,11,43,18.30
2013,07,13,11,44,18.40
2013,07,13,11,45,18.40
2013,07,13,11,46,18.50
2013,07,13,11,47,18.50
2013,07,13,11,48,18.50
2013,07,13,11,49,18.60
2013,07,13,11,50,18.70
2013,07,13,11,51,18.80
2013,07,13,11,52,18.90
2013,07,13,11,53,19.00
2013,07,13,11,54,18.90
2013,07,13,11,55,18.90
2013,07,13,11,56,18.90
2013,07,13,11,57,18.90
2013,07,13,11,58,18.90
2013,07,13,11,59,19.00
2013,07,13,12,00,18.80
2013,07,13,12,01,18.70
2013,07,13,12,02,18.70
2013,07,13,12,03,18.70
2013,07,13,12,04,18.60
2013,07,13,12,05,18.60
2013,07,13,12,06,18.40
2013,07,13,12,07,18.40
2013,07,13,12,08,18.40
2013,07,13,12,09,18.40
2013,07,13,12,10,18.40
2013,07,13,12,11,18.30
2013,07,13,12,12,18.30
2013,07,13,12,13,18.20
2013,07,13,12,14,18.20
2013,07,13,12,15,18.30
2013,07,13,12,16,18.30
2013,07,13,12,17,18.30
2013,07,13,12,18,18.30
2013,07,13,12,19,18.30
2013,07,13,12,20,18.40
2013,07,13,12,21,18.40
2013,07,13,12,22,18.40
2013,07,13,12,23,18.40
2013,07,13,12,24,18.40
2013,07,13,12,25,18.40
2013,07,13,12,26,18.60
2013,07,13,12,27,18.60
2013,07,13,12,28,18.60
2013,07,13,12,29,18.60
2013,07,13,12,30,18.70
2013,07,13,12,31,18.70
2013,07,13,12,32,18.70
2013,07,13,12,33,18.60
2013,07,13,12,34,18.50
2013,07,13,12,35,18.50
2013,07,13,12,36,18.40
2013,07,13,12,37,18.40
2013,07,13,12,38,18.40
2013,07,13,12,39,18.40
2013,07,13,12,40,18.50
2013,07,13,12,41,18.60
2013,07,13,12,42,18.70
2013,07,13,12,43,18.70
2013,07,13,12,44,18.70
2013,07,13,12,45,18.80
2013,07,13,12,46,18.90
2013,07,13,12,47,19.00
2013,07,13,12,48,19.10
2013,07,13,12,49,19.20
2013,07,13,12,50,19.20
2013,07,13,12,51,19.20
2013,07,13,12,52,19.30
2013,07,13,12,53,19.30
2013,07,13,12,54,19.20
2013,07,13,12,55,19.00
2013,07,13,12,56,18.80
2013,07,13,12,57,18.70
2013,07,13,12,58,18.70
2013,07,13,12,59,18.60
2013,07,13,13,00,18.60
2013,07,13,13,01,18.60
2013,07,13,13,02,18.50
2013,07,13,13,03,18.60
2013,07,13,13,04,18.60
2013,07,13,13,05,18.80
2013,07,13,13,06,18.90
2013,07,13,13,07,19.00
2013,07,13,13,08,19.10
2013,07,13,13,09,19.10
2013,07,13,13,10,19.10
2013,07,13,13,11,19.10
2013,07,13,13,12,19.10
2013,07,13,13,13,19.30
2013,07,13,13,14,19.40
2013,07,13,13,15,19.40
2013,07,13,13,16,19.50
2013,07,13,13,17,19.70
2013,07,13,13,18,19.80
2013,07,13,13,19,19.80
2013,07,13,13,20,19.70
2013,07,13,13,21,19.50
2013,07,13,13,22,19.40
2013,07,13,13,23,19.40
2013,07,13,13,24,19.40
2013,07,13,13,25,19.40
2013,07,13,13,26,19.40
2013,07,13,13,27,19.30
2013,07,13,13,28,19.20
2013,07,13,13,29,19.20
2013,07,13,13,30,19.30
2013,07,13,13,31,19.30
2013,07,13,13,32,19.40
2013,07,13,13,33,19.50
2013,07,13,13,34,19.60
2013,07,13,13,35,19.60
2013,07,13,13,36,19.70
2013,07,13,13,37,19.90
2013,07,13,13,38,20.00
2013,07,13,13,39,20.20
2013,07,13,13,40,20.10
2013,07,13,13,41,20.10
2013,07,13,13,42,20.20
2013,07,13,13,43,20.20
2013,07,13,13,44,20.30
2013,07,13,13,45,20.30
2013,07,13,13,46,20.30
2013,07,13,13,47,20.30
2013,07,13,13,48,20.20
2013,07,13,13,49,20.10
2013,07,13,13,50,20.20
2013,07,13,13,51,20.20
2013,07,13,13,52,20.20
2013,07,13,13,53,20.10
2013,07,13,13,54,20.20
2013,07,13,13,55,20.10
2013,07,13,13,56,20.00
2013,07,13,13,57,20.00
2013,07,13,13,58,20.10
2013,07,13,13,59,20.00
2013,07,13,14,00,20.00
2013,07,13,14,01,20.00
2013,07,13,14,02,20.10
2013,07,13,14,03,20.00
2013,07,13,14,04,20.00
2013,07,13,14,05,20.10
2013,07,13,14,06,20.10
2013,07,13,14,07,20.10
2013,07,13,14,08,20.20
2013,07,13,14,09,20.30
2013,07,13,14,10,20.30
2013,07,13,14,11,20.40
2013,07,13,14,12,20.50
2013,07,13,14,13,20.60
2013,07,13,14,14,20.60
2013,07,13,14,15,20.70
2013,07,13,14,16,20.70
2013,07,13,14,17,20.60
2013,07,13,14,18,20.60
2013,07,13,14,19,20.60
2013,07,13,14,20,20.70
2013,07,13,14,21,20.70
2013,07,13,14,22,20.70
2013,07,13,14,23,20.70
2013,07,13,14,24,20.70
2013,07,13,14,25,20.70
2013,07,13,14,26,20.80
2013,07,13,14,27,20.90
2013,07,13,14,28,21.10
2013,07,13,14,29,21.30
2013,07,13,14,30,21.40
2013,07,13,14,31,21.60
2013,07,13,14,32,21.60
2013,07,13,14,33,21.50
2013,07,13,14,34,21.40
2013,07,13,14,35,21.30
2013,07,13,14,36,21.20
2013,07,13,14,37,21.10
2013,07,13,14,38,21.00
2013,07,13,14,39,20.90
2013,07,13,14,40,20.80
2013,07,13,14,41,20.60
2013,07,13,14,42,20.50
2013,07,13,14,43,20.50
2013,07,13,14,44,20.50
2013,07,13,14,45,20.40
2013,07,13,14,46,20.40
2013,07,13,14,47,20.50
2013,07,13,14,48,20.50
2013,07,13,14,49,20.70
2013,07,13,14,50,20.80
2013,07,13,14,51,20.90
2013,07,13,14,52,21.10
2013,07,13,14,53,21.20
2013,07,13,14,54,21.30
2013,07,13,14,55,21.30
2013,07,13,14,56,21.30
2013,07,13,14,57,21.40
2013,07,13,14,58,21.40
2013,07,13,14,59,21.40
2013,07,13,15,00,21.40
2013,07,13,15,01,21.40
2013,07,13,15,02,21.40
2013,07,13,15,03,21.50
2013,07,13,15,04,21.60
2013,07,13,15,05,21.70
2013,07,13,15,06,21.70
2013,07,13,15,07,21.80
2013,07,13,15,08,21.90
2013,07,13,15,09,21.90
2013,07,13,15,10,21.90
2013,07,13,15,11,21.80
2013,07,13,15,12,21.60
2013,07,13,15,13,21.40
2013,07,13,15,14,21.40
2013,07,13,15,15,21.40
2013,07,13,15,16,21.50
2013,07,13,15,17,21.40
2013,07,13,15,18,21.40
2013,07,13,15,19,21.40
2013,07,13,15,20,21.40
2013,07,13,15,21,21.50
2013,07,13,15,22,21.60
2013,07,13,15,23,21.60
2013,07,13,15,24,21.50
2013,07,13,15,25,21.50
2013,07,13,15,26,21.60
2013,07,13,15,27,21.70
2013,07,13,15,28,21.80
2013,07,13,15,29,21.60
2013,07,13,15,30,21.60
2013,07,13,15,31,21.60
2013,07,13,15,32,21.50
2013,07,13,15,33,21.50
2013,07,13,15,34,21.40
2013,07,13,15,35,21.40
2013,07,13,15,36,21.40
2013,07,13,15,37,21.40
2013,07,13,15,38,21.50
2013,07,13,15,39,21.60
2013,07,13,15,40,21.70
2013,07,13,15,41,21.60
2013,07,13,15,42,21.60
2013,07,13,15,43,21.70
2013,07,13,15,44,21.80
2013,07,13,15,45,22.00
2013,07,13,15,46,22.00
2013,07,13,15,47,22.10
2013,07,13,15,48,22.10
2013,07,13,15,49,22.00
2013,07,13,15,50,21.90
2013,07,13,15,51,21.70
2013,07,13,15,52,21.50
2013,07,13,15,53,21.50
2013,07,13,15,54,21.50
2013,07,13,15,55,21.60
2013,07,13,15,56,21.60
2013,07,13,15,57,21.70
2013,07,13,15,58,21.80
2013,07,13,15,59,22.00
2013,07,13,16,00,22.20
2013,07,13,16,01,22.20
2013,07,13,16,02,22.10
2013,07,13,16,03,22.00
2013,07,13,16,04,21.80
2013,07,13,16,05,21.70
2013,07,13,16,06,21.60
2013,07,13,16,07,21.50
2013,07,13,16,08,21.40
2013,07,13,16,09,21.40
2013,07,13,16,10,21.30
2013,07,13,16,11,21.30
2013,07,13,16,12,21.30
2013,07,13,16,13,21.40
2013,07,13,16,14,21.50
2013,07,13,16,15,21.60
2013,07,13,16,16,21.60
2013,07,13,16,17,21.70
2013,07,13,16,18,21.60
2013,07,13,16,19,21.60
2013,07,13,16,20,21.70
2013,07,13,16,21,21.70
2013,07,13,16,22,21.80
2013,07,13,16,23,22.00
2013,07,13,16,24,22.10
2013,07,13,16,25,22.10
2013,07,13,16,26,22.10
2013,07,13,16,27,22.00
2013,07,13,16,28,21.90
2013,07,13,16,29,21.90
2013,07,13,16,30,21.80
2013,07,13,16,31,21.80
2013,07,13,16,32,21.70
2013,07,13,16,33,21.60
2013,07,13,16,34,21.50
2013,07,13,16,35,21.50
2013,07,13,16,36,21.50
2013,07,13,16,37,21.40
2013,07,13,16,38,21.40
2013,07,13,16,39,21.50
2013,07,13,16,40,21.50
2013,07,13,16,41,21.60
2013,07,13,16,42,21.80
2013,07,13,16,43,21.90
2013,07,13,16,44,22.10
2013,07,13,16,45,22.10
2013,07,13,16,46,22.20
2013,07,13,16,47,22.30
2013,07,13,16,48,22.30
2013,07,13,16,49,22.40
2013,07,13,16,50,22.50
2013,07,13,16,51,22.60
2013,07,13,16,52,22.60
2013,07,13,16,53,22.60
2013,07,13,16,54,22.50
2013,07,13,16,55,22.60
2013,07,13,16,56,22.60
2013,07,13,16,57,22.70
2013,07,13,16,58,22.70
2013,07,13,16,59,22.60
2013,07,13,17,00,22.60
2013,07,13,17,01,22.50
2013,07,13,17,02,22.50
2013,07,13,17,03,22.50
2013,07,13,17,04,22.50
2013,07,13,17,05,22.50
2013,07,13,17,06,22.50
2013,07,13,17,07,22.60
2013,07,13,17,08,22.80
2013,07,13,17,09,22.90
2013,07,13,17,10,22.90
2013,07,13,17,11,22.90
2013,07,13,17,12,22.80
2013,07,13,17,13,22.80
2013,07,13,17,14,22.80
2013,07,13,17,15,22.80
2013,07,13,17,16,22.90
2013,07,13,17,17,22.90
2013,07,13,17,18,22.90
2013,07,13,17,19,22.80
2013,07,13,17,20,22.70
2013,07,13,17,21,22.60
2013,07,13,17,22,22.50
2013,07,13,17,23,22.50